GW2922 Weather Reports


time (UTC)temp
F
wind
direction
speed
knots
gust
knots
rain 1hr
in
rain 24hr
in
rain mn
in
humidity
%
barometer
mb
20260901095330 52 99 0.0 0.0 0.00 0.00 0.00 90 1011.3
20260901094824 52 98 0.0 0.0 0.00 0.00 0.00 90 1011.3
20260901094319 51 113 0.0 0.0 0.00 0.00 0.00 90 1011.3
20260901093815 52 113 0.0 0.0 0.00 0.00 0.00 90 1011.3
20260901093313 52 112 0.0 0.0 0.00 0.00 0.00 90 1011.3
20260901092809 52 114 0.0 0.0 0.00 0.00 0.00 90 1011.3
20260901092306 52 114 0.0 0.0 0.00 0.00 0.00 90 1011.3
20260901091801 52 114 0.0 0.0 0.00 0.00 0.00 89 1011.3
20260901091256 53 114 0.0 0.0 0.00 0.00 0.00 89 1011.3
20260901090755 53 114 0.0 0.0 0.00 0.00 0.00 89 1011.3
20260901090250 53 113 0.0 0.0 0.00 0.00 0.00 89 1011.3
20260901085746 53 114 0.0 0.0 0.00 0.00 0.00 88 1011.3
20260901085241 53 114 0.0 0.0 0.00 0.00 0.00 88 1011.3
20260901084738 53 114 0.0 0.0 0.00 0.00 0.00 88 1011.3
20260901084235 53 114 0.0 0.0 0.00 0.00 0.00 87 1011.3
20260901083734 54 114 0.0 0.0 0.00 0.00 0.00 87 1011.3
20260901083234 54 114 0.0 0.0 0.00 0.00 0.00 86 1011.3
20260901082732 54 114 0.0 0.0 0.00 0.00 0.00 85 1011.3
20260901082228 54 114 0.0 0.0 0.00 0.00 0.00 85 1011.3
20260901081723 55 114 0.0 0.0 0.00 0.00 0.00 85 1011.3
20260901081223 55 114 0.0 0.0 0.00 0.00 0.00 85 1011.3
20260901080718 55 114 0.0 0.0 0.00 0.00 0.00 84 1011.3
20260901080217 55 112 0.0 0.0 0.00 0.00 0.00 83 1011.0
20260901075712 55 112 0.0 0.0 0.00 0.00 0.00 83 1011.3
20260901075211 56 118 0.0 0.0 0.00 0.00 0.00 83 1011.3
20260901074706 56 118 0.0 0.0 0.00 0.00 0.00 82 1011.0
20260901074201 56 118 0.0 0.0 0.00 0.00 0.00 82 1011.3
20260901073658 57 117 0.0 0.0 0.00 0.00 0.00 81 1011.3
20260901073153 57 133 0.0 0.9 0.00 0.00 0.00 81 1011.3
20260901072648 57 55 0.0 0.9 0.00 0.00 0.00 80 1011.0
20260901072143 57 99 0.0 0.9 0.00 0.00 0.00 80 1011.0
20260901071642 57 98 0.0 0.9 0.00 0.00 0.00 80 1011.3
20260901071137 57 139 0.0 0.9 0.00 0.00 0.00 80 1011.3
20260901070631 57 103 0.0 0.9 0.00 0.00 0.00 80 1011.3
20260901070127 57 64 0.9 1.7 0.00 0.00 0.00 79 1011.3
20260901065620 57 93 0.9 2.6 0.00 0.00 0.00 79 1011.3
20260901065115 57 313 0.9 1.7 0.00 0.00 0.00 79 1011.3
20260901064612 58 109 0.0 0.9 0.00 0.00 0.00 79 1011.3
20260901064108 58 104 0.0 0.0 0.00 0.00 0.00 79 1011.3
20260901063605 58 106 0.0 1.7 0.00 0.00 0.00 80 1011.3
20260901063101 58 103 0.0 1.7 0.00 0.00 0.00 80 1011.3
20260901062556 58 106 0.0 0.9 0.00 0.00 0.00 80 1011.3
20260901062052 58 30 0.9 0.9 0.00 0.00 0.00 80 1011.3
20260901061548 58 258 0.0 5.2 0.00 0.00 0.00 80 1011.3
20260901061043 58 66 0.9 0.9 0.00 0.00 0.00 80 1011.8
20260901060537 58 325 0.0 5.2 0.00 0.00 0.00 79 1011.3
20260901060032 57 78 0.9 1.7 0.00 0.00 0.00 80 1011.8
20260901055527 57 276 0.0 1.7 0.00 0.00 0.00 80 1011.8
20260901055024 57 51 1.7 2.6 0.00 0.00 0.00 81 1011.8
20260901054521 57 109 0.0 0.9 0.00 0.00 0.00 80 1011.8
20260901054017 57 106 0.0 1.7 0.00 0.00 0.00 80 1011.8
20260901053513 57 338 0.9 1.7 0.00 0.00 0.00 80 1011.8
20260901053009 57 339 0.0 1.7 0.00 0.00 0.00 80 1011.8
20260901052504 58 339 0.9 3.5 0.00 0.00 0.00 80 1012.1
20260901052004 58 91 0.0 3.5 0.00 0.00 0.00 79 1011.8
20260901051458 58 105 0.9 2.6 0.00 0.00 0.00 79 1011.8
20260901050957 58 80 0.9 0.9 0.00 0.00 0.00 78 1011.8
20260901050452 58 206 0.9 0.9 0.00 0.00 0.00 78 1011.8
20260901045952 58 329 0.9 2.6 0.00 0.00 0.00 78 1011.8
20260901045448 58 20 0.9 1.7 0.00 0.00 0.00 78 1011.8
20260901044942 58 289 1.7 2.6 0.00 0.00 0.00 78 1011.8
20260901044438 58 50 0.9 1.7 0.00 0.00 0.00 78 1011.8
20260901043934 58 105 0.9 1.7 0.00 0.00 0.00 78 1011.8
20260901043430 58 95 0.0 0.9 0.00 0.00 0.00 78 1012.1
20260901042930 59 103 0.9 0.9 0.00 0.00 0.00 78 1012.1
20260901042430 59 18 1.7 2.6 0.00 0.00 0.00 77 1011.8
20260901041925 59 79 0.9 2.6 0.00 0.00 0.00 77 1011.8
20260901041420 59 98 0.0 1.7 0.00 0.00 0.00 77 1011.8
20260901040919 59 112 0.0 1.7 0.00 0.00 0.00 77 1011.8
20260901040414 59 125 0.0 0.9 0.00 0.00 0.00 76 1011.8
20260901035908 59 105 0.0 2.6 0.00 0.00 0.00 76 1011.8
20260901035406 60 89 0.0 2.6 0.00 0.00 0.00 75 1011.8
20260901034905 60 41 0.9 0.9 0.00 0.00 0.00 75 1011.8
20260901034400 60 83 0.0 1.7 0.00 0.00 0.00 74 1011.8
20260901033855 61 338 0.9 1.7 0.00 0.00 0.00 73 1011.8
20260901033354 61 22 1.7 2.6 0.00 0.00 0.00 73 1011.8
20260901032853 61 58 0.9 2.6 0.00 0.00 0.00 72 1011.8
20260901032352 62 343 0.9 2.6 0.00 0.00 0.00 71 1011.3
20260901031848 62 342 1.7 5.2 0.00 0.00 0.00 71 1011.8
20260901031343 62 86 0.9 2.6 0.00 0.00 0.00 71 1011.3
20260901030843 62 111 0.9 1.7 0.00 0.00 0.00 70 1011.8
20260901030338 63 87 0.9 0.9 0.00 0.00 0.00 69 1011.3
20260901025837 63 85 0.9 2.6 0.00 0.00 0.00 69 1011.8
20260901025332 64 96 0.9 2.6 0.00 0.00 0.00 68 1011.8
20260901024827 64 114 0.9 3.5 0.00 0.00 0.00 68 1011.8
20260901024326 64 86 0.9 1.7 0.00 0.00 0.00 67 1011.8
20260901023824 65 94 0.9 0.9 0.00 0.00 0.00 66 1011.3
20260901023320 65 103 0.0 0.9 0.00 0.00 0.00 65 1011.8
20260901022815 65 96 0.0 0.9 0.00 0.00 0.00 65 1011.8
20260901022311 65 103 0.9 0.9 0.00 0.00 0.00 64 1011.8
20260901021806 66 59 0.9 1.7 0.00 0.00 0.00 64 1011.8
20260901021302 66 104 0.0 1.7 0.00 0.00 0.00 64 1011.8
20260901020756 66 66 0.9 1.7 0.00 0.00 0.00 64 1011.8
20260901020251 66 89 0.9 2.6 0.00 0.00 0.00 64 1011.8
20260901015746 66 90 0.0 1.7 0.00 0.00 0.00 65 1011.8
20260901015242 66 148 0.0 5.2 0.00 0.00 0.00 65 1011.8
20260901014736 66 100 0.0 3.5 0.00 0.00 0.00 66 1011.8
20260901014232 66 291 1.7 2.6 0.00 0.00 0.00 65 1011.8
20260901013728 66 98 0.9 3.5 0.00 0.00 0.00 65 1011.8
20260901013223 66 226 0.9 2.6 0.00 0.00 0.00 65 1011.8
20260901012718 66 146 0.0 1.7 0.00 0.00 0.00 65 1011.8
20260901012218 68 303 1.7 2.6 0.00 0.00 0.00 62 1012.1
20260901011714 68 225 1.7 1.7 0.00 0.00 0.00 62 1011.8
20260901011214 67 73 1.7 2.6 0.00 0.00 0.00 63 1012.1
20260901010708 68 345 2.6 5.2 0.00 0.00 0.00 62 1011.8
20260901010202 69 38 0.9 1.7 0.00 0.00 0.00 61 1012.1
20260901005656 69 111 0.9 0.9 0.00 0.00 0.00 60 1012.1
20260901005152 70 90 0.9 2.6 0.00 0.00 0.00 59 1012.1
20260901004652 72 359 1.7 1.7 0.00 0.00 0.00 56 1012.1
20260901004146 72 112 0.0 2.6 0.00 0.00 0.00 56 1012.5
20260901003640 71 112 0.9 1.7 0.00 0.00 0.00 58 1012.1
20260901003139 71 106 0.9 2.6 0.00 0.00 0.00 59 1012.1
20260901002634 72 314 2.6 2.6 0.00 0.00 0.00 56 1012.5
20260901002128 71 111 0.9 2.6 0.00 0.00 0.00 58 1012.5
20260901001624 70 130 0.0 0.9 0.00 0.00 0.00 59 1012.5
20260901001119 69 320 1.7 1.7 0.00 0.00 0.00 60 1012.5
20260901000614 69 236 1.7 3.5 0.00 0.00 0.00 61 1012.5
20260901000109 71 333 2.6 6.1 0.00 0.00 0.00 59 1012.5
20260831235602 70 306 1.7 3.5 0.00 0.00 0.00 60 1012.5
20260831235058 69 354 1.7 2.6 0.00 0.00 0.00 61 1012.5
20260831234552 69 21 2.6 5.2 0.00 0.00 0.00 60 1012.5
20260831234048 70 64 1.7 3.5 0.00 0.00 0.00 60 1012.5
20260831233543 70 340 2.6 2.6 0.00 0.00 0.00 58 1012.5
20260831233039 72 101 0.9 3.5 0.00 0.00 0.00 57 1012.8
20260831232534 72 169 0.0 5.2 0.00 0.00 0.00 58 1012.8
20260831232030 73 188 0.9 1.7 0.00 0.00 0.00 55 1012.8
20260831231526 71 128 0.9 3.5 0.00 0.00 0.00 58 1013.1
20260831231021 70 109 0.0 2.6 0.00 0.00 0.00 59 1012.8
20260831230516 70 115 0.9 7.0 0.00 0.00 0.00 60 1012.8
20260831230011 70 341 1.7 5.2 0.00 0.00 0.00 60 1013.1
20260831225507 70 70 2.6 6.1 0.00 0.00 0.00 60 1013.1
20260831225006 69 109 0.9 6.1 0.00 0.00 0.00 62 1013.1
20260831224501 72 316 2.6 3.5 0.00 0.00 0.00 58 1013.5
20260831223956 70 63 0.9 3.5 0.00 0.00 0.00 60 1013.1
20260831223451 71 26 1.7 2.6 0.00 0.00 0.00 59 1013.1
20260831222947 70 124 0.9 2.6 0.00 0.00 0.00 61 1013.5
20260831222443 69 90 0.9 1.7 0.00 0.00 0.00 61 1013.5
20260831221938 71 55 1.7 5.2 0.00 0.00 0.00 59 1013.5
20260831221434 68 313 0.9 2.6 0.00 0.00 0.00 64 1013.5
20260831220929 69 345 1.7 3.5 0.00 0.00 0.00 63 1013.5
20260831220424 70 331 1.7 1.7 0.00 0.00 0.00 60 1013.5
20260831215919 69 71 1.7 3.5 0.00 0.00 0.00 62 1013.8
20260831215415 71 336 3.5 5.2 0.00 0.00 0.00 61 1013.8
20260831214911 71 182 0.0 1.7 0.00 0.00 0.00 60 1013.8
20260831214409 68 194 1.7 3.5 0.00 0.00 0.00 64 1013.8
20260831213904 71 317 0.9 3.5 0.00 0.00 0.00 61 1014.1
20260831213401 73 108 0.9 2.6 0.00 0.00 0.00 57 1014.1
20260831212855 69 120 0.9 6.1 0.00 0.00 0.00 62 1014.1
20260831212352 68 55 0.9 2.6 0.00 0.00 0.00 64 1013.8
20260831211850 68 45 2.6 5.2 0.00 0.00 0.00 64 1014.1
20260831211345 68 0 1.7 6.1 0.00 0.00 0.00 64 1014.1
20260831210844 68 20 3.5 7.0 0.00 0.00 0.00 64 1014.1
20260831210340 68 51 0.9 2.6 0.00 0.00 0.00 63 1014.1
20260831205836 69 310 3.5 5.2 0.00 0.00 0.00 61 1014.1
20260831205331 69 110 0.9 5.2 0.00 0.00 0.00 62 1014.5
20260831204826 68 39 0.9 2.6 0.00 0.00 0.00 63 1014.1
20260831204325 67 14 1.7 3.5 0.00 0.00 0.00 63 1014.5
20260831203824 68 88 2.6 5.2 0.00 0.00 0.00 63 1014.5
20260831203319 68 71 3.5 3.5 0.00 0.00 0.00 62 1014.5
20260831202817 68 83 2.6 5.2 0.00 0.00 0.00 63 1014.8
20260831202312 68 290 3.5 5.2 0.00 0.00 0.00 62 1014.8
20260831201807 67 61 2.6 5.2 0.00 0.00 0.00 63 1014.8
20260831201305 67 26 2.6 3.5 0.00 0.00 0.00 64 1014.8
20260831200801 68 15 1.7 3.5 0.00 0.00 0.00 64 1014.8
20260831200256 67 10 1.7 3.5 0.00 0.00 0.00 65 1014.8
20260831195751 68 253 1.7 3.5 0.00 0.00 0.00 63 1014.8
20260831195247 68 53 4.3 6.1 0.00 0.00 0.00 63 1014.8
20260831194742 68 192 1.7 2.6 0.00 0.00 0.00 64 1014.8
20260831194238 68 74 0.9 2.6 0.00 0.00 0.00 63 1014.8
20260831193731 66 349 1.7 7.0 0.00 0.00 0.00 66 1014.8
20260831193227 68 25 0.9 2.6 0.00 0.00 0.00 64 1015.2
20260831192722 66 357 1.7 5.2 0.00 0.00 0.00 66 1015.2
20260831192217 66 283 1.7 7.0 0.00 0.00 0.00 67 1015.2
20260831191713 66 86 0.9 2.6 0.00 0.00 0.00 67 1015.2
20260831191209 65 70 2.6 6.1 0.00 0.00 0.00 68 1015.5
20260831190704 65 42 2.6 3.5 0.00 0.00 0.00 67 1015.2
20260831190203 65 41 1.7 1.7 0.00 0.00 0.00 67 1015.2
20260831185659 65 298 2.6 3.5 0.00 0.00 0.00 68 1015.2
20260831185154 64 298 1.7 2.6 0.00 0.00 0.00 70 1015.5
20260831184653 64 76 0.9 2.6 0.00 0.00 0.00 70 1015.8
20260831184149 64 286 2.6 3.5 0.00 0.00 0.00 71 1015.5
20260831183648 64 28 2.6 2.6 0.00 0.00 0.00 70 1015.5
20260831183148 64 95 1.7 2.6 0.00 0.00 0.00 71 1015.5
20260831182647 65 87 1.7 2.6 0.00 0.00 0.00 70 1015.8
20260831182143 65 90 0.0 2.6 0.00 0.00 0.00 72 1015.8
20260831181637 64 109 0.9 1.7 0.00 0.00 0.00 72 1015.8
20260831181132 63 209 0.9 2.6 0.00 0.00 0.00 74 1015.8
20260831180627 62 126 1.7 3.5 0.00 0.00 0.00 75 1015.8
20260831180122 62 340 1.7 2.6 0.00 0.00 0.00 77 1015.8
20260831175616 62 74 1.7 5.2 0.00 0.00 0.00 76 1015.8
20260831175114 62 72 1.7 3.5 0.00 0.00 0.00 76 1015.8
20260831174613 62 91 1.7 3.5 0.00 0.00 0.00 76 1015.8
20260831174108 61 96 0.0 5.2 0.00 0.00 0.00 77 1016.2
20260831173606 61 57 1.7 6.1 0.00 0.00 0.00 77 1015.8
20260831173102 61 61 0.9 5.2 0.00 0.00 0.00 77 1015.8
20260831172557 61 102 1.7 5.2 0.00 0.00 0.00 76 1016.2
20260831172052 62 109 1.7 3.5 0.00 0.00 0.00 76 1016.2
20260831171547 62 310 2.6 5.2 0.00 0.00 0.00 75 1016.2
20260831171044 61 110 0.9 3.5 0.00 0.00 0.00 77 1016.2
20260831170540 61 87 1.7 5.2 0.00 0.00 0.00 76 1016.2
20260831170038 61 315 2.6 5.2 0.00 0.00 0.00 77 1016.2
20260831165537 61 76 1.7 2.6 0.00 0.00 0.00 77 1015.8
20260831165034 60 316 1.7 3.5 0.00 0.00 0.00 78 1016.2
20260831164530 60 84 1.7 2.6 0.00 0.00 0.00 80 1016.2
20260831164025 60 71 1.7 2.6 0.00 0.00 0.00 80 1016.2
20260831163520 59 352 0.0 0.9 0.00 0.00 0.00 81 1016.2
20260831163016 59 11 0.9 0.9 0.00 0.00 0.00 82 1016.5
20260831162515 59 30 0.0 1.7 0.00 0.00 0.00 82 1016.2
20260831162012 58 18 0.9 1.7 0.00 0.00 0.00 83 1016.2
20260831161509 58 1 0.9 1.7 0.00 0.00 0.00 83 1016.2
20260831161005 58 356 2.6 2.6 0.00 0.00 0.00 84 1016.5
20260831160504 57 258 2.6 5.2 0.00 0.00 0.00 85 1016.5
20260831155959 57 100 0.0 1.7 0.00 0.00 0.00 86 1016.5
20260831155454 57 61 0.9 2.6 0.00 0.00 0.00 87 1016.2
20260831154949 57 308 0.9 2.6 0.00 0.00 0.00 90 1016.5
20260831154446 57 307 1.7 2.6 0.00 0.00 0.00 91 1016.5
20260831153944 56 147 0.0 0.9 0.00 0.00 0.00 92 1016.9
20260831153440 56 105 0.0 2.6 0.00 0.00 0.00 93 1016.5
20260831152937 55 330 2.6 2.6 0.00 0.00 0.00 94 1016.5
20260831152432 55 314 0.0 1.7 0.00 0.00 0.00 94 1016.5
20260831151927 55 124 1.7 2.6 0.00 0.00 0.00 95 1016.5
20260831151426 55 359 0.0 1.7 0.00 0.00 0.00 95 1016.9
20260831150921 55 73 0.9 2.6 0.00 0.00 0.00 95 1016.5
20260831150417 55 82 0.9 3.5 0.00 0.00 0.00 95 1016.5
20260831145916 55 80 0.9 0.9 0.00 0.00 0.00 95 1016.9
20260831145412 54 99 0.0 2.6 0.00 0.00 0.00 95 1016.5
20260831144908 54 24 1.7 2.6 0.00 0.00 0.00 95 1016.9
20260831144403 54 25 0.0 2.6 0.00 0.00 0.00 95 1016.9
20260831143858 54 178 0.0 2.6 0.00 0.00 0.00 95 1016.5
20260831143348 54 334 1.7 3.5 0.00 0.00 0.00 95 1016.9
20260831142843 54 80 0.0 0.9 0.00 0.00 0.00 95 1016.5
20260831142338 54 340 0.9 1.7 0.00 0.00 0.00 95 1016.9
20260831141832 53 95 0.0 0.9 0.00 0.00 0.00 95 1016.5
20260831141327 53 28 0.0 1.7 0.00 0.00 0.00 95 1016.5
20260831140821 53 339 1.7 2.6 0.00 0.00 0.00 95 1016.5
20260831140316 53 91 0.0 0.9 0.00 0.00 0.00 95 1016.5
20260831135814 53 96 0.0 1.7 0.00 0.00 0.00 95 1016.5
20260831135310 53 58 0.9 1.7 0.00 0.00 0.00 95 1016.5
20260831134805 53 326 0.9 3.5 0.00 0.00 0.00 95 1016.5
20260831134302 53 75 0.9 1.7 0.00 0.00 0.00 95 1016.9
20260831133800 53 21 0.9 5.2 0.00 0.00 0.00 95 1016.5
20260831133255 53 294 0.9 1.7 0.00 0.00 0.00 95 1016.5
20260831132750 53 29 0.9 0.9 0.00 0.00 0.00 95 1016.5
20260831132244 53 79 0.9 0.9 0.00 0.00 0.00 95 1016.9
20260831131738 53 101 0.0 6.1 0.00 0.00 0.00 95 1016.5
20260831131235 53 84 0.9 1.7 0.00 0.00 0.00 95 1016.9
20260831130730 53 187 1.7 2.6 0.00 0.00 0.00 95 1016.9
20260831130226 53 106 0.0 1.7 0.00 0.00 0.00 95 1016.9
20260831125724 53 331 3.5 5.2 0.00 0.00 0.00 95 1016.9
20260831125221 53 43 0.9 1.7 0.00 0.00 0.00 95 1016.9
20260831124715 53 86 0.9 2.6 0.00 0.00 0.00 95 1016.9
20260831124211 53 12 1.7 2.6 0.00 0.00 0.00 95 1016.9
20260831123711 53 95 0.0 2.6 0.00 0.00 0.00 94 1016.9
20260831123210 53 28 0.9 2.6 0.00 0.00 0.00 94 1017.2
20260831122709 53 27 0.9 1.7 0.00 0.00 0.00 94 1016.9
20260831122200 53 324 0.9 0.9 0.00 0.00 0.00 94 1017.2
20260831121659 54 94 0.9 5.2 0.00 0.00 0.00 94 1017.2
20260831121156 54 88 0.9 1.7 0.00 0.00 0.00 94 1016.9
20260831120651 54 31 1.7 1.7 0.00 0.00 0.00 94 1017.2
20260831120145 54 58 0.9 0.9 0.00 0.00 0.00 94 1017.2
20260831115642 54 295 0.9 2.6 0.00 0.00 0.00 94 1017.5
20260831115137 54 102 0.0 0.9 0.00 0.00 0.00 94 1017.5
20260831114636 54 75 0.9 1.7 0.00 0.00 0.00 94 1017.5
20260831114131 54 41 1.7 1.7 0.00 0.00 0.00 94 1017.5
20260831113630 54 356 1.7 2.6 0.00 0.00 0.00 94 1017.5
20260831113126 54 56 1.7 2.6 0.00 0.00 0.00 94 1017.5
20260831112624 54 59 0.9 0.9 0.00 0.00 0.00 94 1017.5
20260831112119 54 315 3.5 3.5 0.00 0.00 0.00 94 1017.9
20260831111610 54 147 0.9 0.9 0.00 0.00 0.00 93 1017.9
20260831111105 54 104 0.0 0.9 0.00 0.00 0.00 93 1017.5
20260831110600 55 300 2.6 5.2 0.00 0.00 0.00 93 1017.9
20260831110055 55 75 0.9 5.2 0.00 0.00 0.00 93 1017.9
20260831105554 55 51 0.9 2.6 0.00 0.00 0.00 93 1017.9
20260831105049 55 56 0.0 2.6 0.00 0.00 0.00 93 1017.5
20260831104546 55 322 1.7 3.5 0.00 0.00 0.00 93 1017.9
20260831104042 55 80 0.9 2.6 0.00 0.00 0.00 93 1017.9
20260831103537 55 82 0.9 2.6 0.00 0.00 0.00 93 1017.9
20260831103033 55 312 1.7 3.5 0.00 0.00 0.00 93 1017.9
20260831102532 55 307 1.7 1.7 0.00 0.00 0.00 92 1017.9
20260831102028 55 92 0.9 0.9 0.00 0.00 0.00 92 1017.9
20260831101522 55 91 0.9 2.6 0.00 0.00 0.00 92 1017.9
20260831101019 55 329 0.9 1.7 0.00 0.00 0.00 92 1017.9
20260831100514 55 350 0.9 5.2 0.00 0.00 0.00 92 1018.2
20260831100010 55 81 0.9 3.5 0.00 0.00 0.00 92 1018.2